Regional Weather Roundup
Issued by NWS

Home | Current Version | Previous Version | Text Only | Print | Product List | Glossary On
Versions: 1 2 3 4 5 6 7 8 9 10 11 12 13 14 15 16 17 18 19 20 21 22 23 24 25 26 27
000
ASCA42 TJSJ 271610
RWRPR
PUERTO RICO/U.S. VIRGIN ISLANDS HOURLY WEATHER ROUNDUP
NATIONAL WEATHER SERVICE SAN JUAN PR
1200 PM AST MON MAR 27 2017

PRZ001>002-007>008-010-271700-
PUERTO RICO

CITY           SKY/WX    TMP DP  RH WIND       PRES   REMARKS
SAN JUAN LMM   LGT RAIN  77  72  83 NW5       29.96S
AGUADILLA      MOSUNNY   84  72  65 SW12G17   29.97F
CEIBA          PTSUNNY   88  75  66 S17       29.99F HX  97
$$

VIZ001>002-271700-
U.S. VIRGIN ISLANDS

CITY           SKY/WX    TMP DP  RH WIND       PRES   REMARKS
CHARLOTTE AMA  MOSUNNY   81  75  83 S10       29.97F
CHRISTIANSTED  MOSUNNY   82  73  74 S8        29.99S
$$

HOURLY WEATHER ROUNDUP FOR THE NEWS MEDIA

CITY           SKY/WX    TMP DP  RH WIND       PRES   REMARKS
ORLANDO        MOSUNNY   78  55  44 E8        30.13F
NEW YORK       LGT RAIN  45  44  97 N3        30.08F
NEWARK         CLOUDY    45  44  97 CALM      30.07F
CHICAGO        CLOUDY    47  44  90 E6        29.95S FOG
HARTFORD       FOG       46  44  93 S9        30.10F VSB 1/4
BOSTON         RAIN      40  40 100 E5        30.11F VSB 1/2
DALLAS         PTSUNNY   61  51  70 NW12      29.94R
PHILADELPHIA   CLOUDY    49  47  93 SE3       30.07F FOG
LOS ANGELES    PTSUNNY   60  54  80 NE6       30.04R
WASHINGTON DC  CLOUDY    56  51  84 SW7       30.06S HAZE



USA.gov is the U.S. government's official web portal to all federal, state and local government web resources and services.